Terminal Aerodrome Forecast
Issued by NWS

Home | Current Version | Previous Version | Graphics & Text | Print | Product List | Glossary On
Versions: 1 2 3 4 5 6 7 8 9 10 11 12 13 14 15 16 17
746
FTUS43 KICT 191120
TAFCNU
TAF
KCNU 191120Z 1912/2012 VRB02KT P6SM FEW080 BKN120
      TEMPO 1912/1913 5SM BR
     FM191700 13004KT P6SM SKC=

USA.gov is the U.S. government's official web portal to all federal, state and local government web resources and services.